Theta_e
317 310 308 308 310 312 314 315 313 313 313 311 310 309 309 308 309 311 312 319 323 315 310 312 312 312 314 317 322 327 331 328 324 323 329 328 330 333 337 335 341 342 339 344 348 350 351 357 354 356 358 355 355 355 355 355 357 358 357 357 358 359 362 360 360 358 356 354 355 355 349 348 351 354 353 353 355 356 356 357 357 359 360 357 360 361
314 308 308 311 313 314 314 315 315 314 313 311 309 308 307 308 305 313 315 323 328 315 310 313 313 313 316 317 320 323 327 324 323 323 325 327 329 335 334 336 340 342 344 345 347 353 355 354 357 354 356 357 353 353 352 354 356 357 357 357 357 361 363 363 362 360 358 358 355 352 350 350 349 351 352 351 353 353 356 358 360 359 359 359 360 361
308 306 309 313 315 315 315 314 315 313 311 311 308 307 306 307 310 312 318 319 323 318 312 314 310 312 315 317 319 320 321 327 328 326 327 328 333 336 337 333 336 338 343 342 344 349 353 356 357 356 357 357 356 356 354 356 357 356 358 360 361 361 358 361 361 364 359 358 359 356 354 351 348 352 353 353 358 356 357 356 358 360 359 360 359 361
306 309 312 314 314 313 313 314 313 312 312 309 308 306 304 309 306 306 317 319 324 316 312 312 310 313 318 320 321 327 327 333 338 334 333 335 331 332 330 331 333 334 344 343 342 345 352 352 357 355 355 356 355 357 355 355 355 355 359 360 363 361 360 360 360 359 359 360 363 364 359 358 354 351 355 357 356 356 357 354 355 357 360 360 359 360
307 312 315 314 313 311 310 312 311 309 307 309 308 306 305 306 308 308 312 313 322 323 317 314 314 310 316 317 316 323 326 333 334 333 332 331 340 336 337 333 336 335 342 345 343 348 352 355 353 352 355 355 353 353 353 354 355 356 357 360 363 362 361 360 360 359 363 364 362 363 362 360 357 356 355 353 351 354 356 355 352 354 359 360 359 358
308 313 314 312 311 312 311 310 310 309 305 307 309 309 308 309 308 309 310 309 307 310 314 314 304 304 312 314 314 318 321 326 327 328 325 327 330 331 330 334 335 343 344 345 345 346 348 351 354 352 354 353 351 352 350 352 355 356 358 360 364 363 363 361 360 362 364 361 360 359 357 353 353 352 349 348 347 349 351 351 351 354 357 358 358 361
310 313 312 310 309 309 310 309 310 309 305 304 306 311 310 309 309 308 308 307 302 302 314 317 303 300 311 311 314 318 319 327 329 326 326 333 340 331 338 338 338 338 339 343 345 347 346 349 353 353 353 353 352 353 354 353 356 358 361 362 362 363 363 360 362 364 364 361 358 355 350 349 349 349 350 355 352 351 352 353 354 353 356 357 356 358
311 311 311 310 309 308 307 306 308 308 305 303 310 311 311 311 309 309 308 307 306 310 316 314 308 303 303 311 316 319 317 320 322 324 329 334 334 330 331 333 340 340 339 347 343 344 344 350 349 349 350 350 349 352 354 355 358 360 361 361 363 364 363 362 362 363 362 360 358 357 353 352 350 347 350 352 354 353 356 354 352 352 354 357 357 357
310 309 309 308 308 306 305 308 310 310 306 306 311 312 311 311 310 310 308 307 307 306 303 307 311 306 305 312 319 319 313 317 318 323 325 329 329 329 331 333 339 342 344 343 348 347 345 346 347 351 351 351 351 353 352 354 357 359 362 364 365 365 365 364 363 362 361 362 360 357 353 355 353 351 351 354 355 354 354 352 353 353 352 356 359 360
312 311 311 310 308 305 308 310 311 311 308 310 312 313 312 312 311 310 307 306 306 304 300 304 308 301 302 309 311 315 312 314 317 320 321 324 329 330 331 333 334 342 348 346 343 342 342 344 344 355 355 354 353 354 356 362 360 361 363 364 364 361 364 365 364 363 363 362 361 359 358 356 356 358 356 354 355 358 357 353 354 356 355 353 356 357
311 317 316 311 308 310 310 311 312 312 312 314 312 310 309 309 309 309 309 308 306 300 302 306 308 305 299 308 309 311 313 315 316 319 323 328 327 326 328 330 328 330 343 345 343 342 342 344 348 350 350 356 356 355 359 360 360 361 362 363 361 363 364 364 364 362 361 361 360 359 359 358 357 355 355 355 353 356 356 354 350 352 355 354 354 357
311 311 311 312 314 313 312 310 315 314 314 312 309 307 307 306 309 308 307 310 300 298 305 308 307 308 298 304 312 317 318 316 317 318 322 324 326 327 330 327 329 330 341 343 342 341 342 343 345 346 345 352 356 356 359 357 357 359 362 363 363 363 362 360 362 363 362 360 360 361 360 360 361 360 354 354 353 352 353 351 352 355 355 354 353 356
307 308 311 312 316 312 310 309 310 313 312 310 308 306 300 299 302 298 307 299 300 298 305 309 308 306 305 310 312 314 314 317 320 320 319 325 326 331 331 331 331 334 335 344 344 343 341 339 342 343 346 349 352 352 357 356 355 360 362 363 363 361 362 361 362 362 361 361 361 361 361 362 365 360 358 359 359 353 354 353 353 357 357 356 354 352
306 311 310 311 312 314 311 305 305 305 308 307 305 305 301 297 297 294 298 301 300 304 307 307 310 303 308 310 315 315 317 319 322 324 325 327 329 332 331 330 330 330 332 339 342 343 342 342 342 343 345 348 347 347 346 353 359 361 362 363 363 361 363 363 360 361 362 360 361 362 363 362 360 357 356 357 359 353 357 359 357 351 351 354 350 349
301 301 306 309 306 313 310 309 308 308 308 308 310 307 304 303 298 295 297 295 297 300 303 310 304 303 302 307 315 317 319 320 321 321 328 329 331 333 334 337 329 332 338 339 344 344 345 345 341 340 343 344 346 343 342 345 352 358 360 362 362 361 363 362 361 361 360 361 360 362 362 362 361 358 358 358 361 363 361 354 351 354 352 350 351 351
304 303 310 313 313 313 310 312 312 310 308 310 311 311 306 304 308 299 301 301 301 301 301 306 303 307 308 316 317 321 318 319 319 323 325 328 330 334 334 336 333 332 332 331 339 337 347 348 344 342 338 340 345 343 342 345 351 347 353 362 363 362 362 362 360 359 354 350 352 352 353 359 360 361 360 365 363 361 359 356 352 352 358 354 354 355
307 303 311 312 315 313 312 314 312 312 301 308 308 303 306 312 309 305 304 305 304 301 299 306 308 310 313 315 316 318 318 318 319 319 322 327 329 331 330 332 334 332 331 328 333 337 347 349 344 345 343 339 339 340 342 344 349 351 353 360 361 362 358 352 352 353 350 348 349 350 353 356 357 358 359 360 359 358 357 358 356 357 356 353 357 352
304 304 312 311 309 313 315 315 314 313 312 309 303 308 313 314 311 305 298 301 299 296 299 303 301 303 306 303 315 315 315 316 317 317 320 326 327 327 328 332 337 334 332 333 336 336 343 347 348 347 346 344 340 342 345 343 347 347 350 356 358 358 346 348 350 353 351 349 348 351 355 358 358 359 359 359 360 360 361 358 355 359 354 353 351 352
311 303 308 312 311 314 316 314 311 314 316 310 308 315 306 302 301 307 303 296 296 296 297 302 304 304 305 308 311 312 312 315 318 321 322 320 324 327 330 331 331 333 335 335 334 336 336 340 344 349 350 351 342 342 344 343 346 346 351 354 356 348 347 351 351 353 351 351 349 350 352 356 355 357 360 362 362 360 357 356 355 355 356 356 351 352
313 303 305 313 311 313 314 311 303 307 313 314 314 310 312 308 304 301 302 304 303 296 297 300 302 305 310 311 313 312 315 316 319 319 323 323 326 329 332 331 331 333 332 333 333 332 336 336 343 344 347 349 351 346 342 343 345 347 353 357 353 354 356 358 355 355 353 355 354 353 354 355 357 357 359 361 358 356 354 355 354 353 353 354 352 354
309 313 301 308 314 312 306 309 306 308 306 307 307 306 308 308 311 308 307 304 301 299 299 298 298 304 311 315 314 314 316 318 317 322 326 329 328 328 330 335 334 334 333 332 331 333 334 335 342 345 349 354 355 354 346 342 342 346 353 352 355 353 354 354 354 352 351 353 355 356 356 355 353 357 361 362 357 355 356 356 352 352 352 354 354 356
309 308 303 306 306 306 307 312 313 311 311 309 308 307 307 305 304 301 300 307 305 301 296 299 297 305 314 321 317 318 320 320 325 326 326 328 327 330 333 334 337 335 332 331 334 333 334 342 341 344 350 352 352 351 354 353 348 348 350 348 351 348 348 348 348 348 348 352 352 351 353 355 357 358 360 361 361 358 356 355 353 354 356 354 359 360
315 312 308 304 307 307 311 314 316 315 314 313 311 308 311 309 308 304 295 301 305 305 307 305 302 305 318 324 322 321 321 319 322 324 323 326 328 328 334 337 339 336 335 334 333 333 337 339 341 346 350 350 351 351 353 356 351 349 350 349 348 345 346 347 347 349 350 352 351 351 352 356 358 358 360 359 360 360 358 358 355 356 357 356 357 360
324 310 306 307 310 312 313 315 315 315 314 311 311 312 310 306 307 306 305 306 303 306 303 302 302 305 316 330 327 323 327 322 329 321 326 326 325 332 341 338 343 339 338 340 340 334 345 344 350 354 353 354 354 353 353 356 357 356 351 351 350 344 343 348 348 350 350 350 352 352 352 353 355 358 358 358 359 359 360 359 362 363 357 357 360 361
309 313 310 304 304 306 308 310 310 314 313 310 309 311 312 312 311 310 310 311 304 308 305 301 298 303 314 322 322 323 320 321 321 322 322 322 328 328 340 344 346 344 342 334 341 344 344 347 349 354 354 356 357 358 358 358 359 360 360 357 351 352 345 344 348 351 354 355 354 354 352 352 355 358 359 358 356 356 356 358 358 358 355 359 360 362
311 310 310 301 299 297 296 298 303 304 306 310 310 311 312 310 310 308 303 311 300 309 309 304 303 311 315 322 319 319 319 323 324 323 324 326 326 326 334 342 345 339 338 337 348 346 344 349 352 352 354 357 358 359 360 361 360 360 360 358 356 354 353 353 352 355 355 356 354 355 356 357 357 357 357 357 357 357 357 358 362 358 358 359 357 358
311 312 311 309 306 303 306 309 311 311 309 306 309 310 309 311 312 312 310 307 302 308 305 309 308 309 311 312 314 316 321 319 320 321 322 324 327 334 339 342 337 334 334 332 342 351 353 354 349 350 354 357 357 359 360 360 360 359 361 360 359 361 360 359 357 357 356 354 354 355 355 354 355 356 357 357 358 360 361 361 361 360 359 357 358 359
313 308 309 311 310 310 311 310 312 312 307 308 308 308 310 311 311 310 306 305 313 307 302 315 318 307 309 312 314 315 318 321 320 322 323 327 326 329 337 342 338 335 335 334 332 340 349 353 352 351 355 355 358 360 361 361 360 360 360 360 361 362 361 359 359 359 357 356 354 354 352 355 355 357 359 360 361 361 361 360 360 362 361 360 357 357
311 308 311 311 310 311 312 311 313 312 311 311 310 310 309 310 310 308 308 309 312 305 303 316 319 310 312 312 315 320 322 323 320 322 327 323 328 333 335 335 335 334 334 334 333 336 338 342 351 352 353 356 358 359 359 360 361 362 362 362 362 360 361 362 360 359 355 356 355 355 355 356 357 358 359 361 361 361 360 359 359 359 361 359 357 355
314 309 311 312 310 310 310 310 312 311 311 311 311 311 312 311 311 310 309 310 314 311 314 314 318 312 315 317 317 318 322 325 326 327 327 325 330 332 330 332 329 333 336 337 338 336 339 340 349 352 353 354 354 356 358 360 360 360 360 360 361 361 362 361 359 357 356 355 354 356 356 357 358 358 359 356 357 359 360 360 360 359 358 357 356 354
312 309 313 311 309 308 310 311 311 310 310 308 310 310 311 312 312 311 310 312 312 313 314 314 311 312 318 325 325 325 328 327 328 328 326 328 328 330 330 330 330 333 333 339 336 339 342 341 345 353 354 354 355 356 359 360 361 360 360 360 361 360 361 360 357 357 355 355 356 357 357 357 357 358 359 358 356 355 359 357 356 358 359 357 355 353
313 309 312 310 305 305 309 309 309 309 309 308 308 309 309 309 308 309 309 316 313 311 315 311 313 312 322 326 326 328 326 326 328 329 329 328 328 328 328 327 329 334 335 335 340 342 344 346 346 352 354 355 357 356 358 360 359 360 358 360 360 361 361 359 358 357 357 357 358 357 357 357 358 358 358 358 357 359 357 358 358 357 356 357 356 353
310 308 305 305 302 303 308 308 307 308 307 304 305 308 311 311 314 313 316 321 321 319 316 313 315 323 325 328 325 326 326 328 330 330 331 332 334 331 328 325 333 331 333 336 336 343 350 348 347 355 356 357 359 359 358 361 359 358 360 359 361 362 360 359 358 358 357 358 358 358 358 359 358 357 358 359 358 355 356 358 355 353 352 352 353 352
309 307 304 307 300 301 305 306 307 303 296 298 310 315 314 311 311 315 315 320 321 323 320 323 324 328 326 325 325 326 327 328 331 333 334 334 332 332 331 333 334 338 337 336 344 344 348 346 354 356 357 358 359 360 361 362 360 361 362 362 362 360 360 359 358 358 357 357 358 359 359 359 358 356 358 359 356 355 355 355 354 353 353 354 352 349
306 306 305 309 303 302 305 306 301 296 298 310 313 315 317 316 316 322 321 321 322 323 324 324 326 326 329 329 327 328 330 331 330 330 330 332 335 333 332 336 338 334 337 340 343 343 348 350 357 358 357 357 359 360 362 361 362 362 361 361 360 360 359 358 358 357 357 357 359 359 358 359 357 357 356 357 356 355 354 354 354 353 352 351 352 348
306 306 307 305 305 305 302 300 293 296 307 311 315 319 320 318 321 315 319 321 323 324 324 324 325 326 329 330 330 330 331 330 332 333 336 332 333 331 331 331 337 336 338 343 345 349 351 351 359 357 357 358 358 360 361 360 362 361 359 362 359 360 360 359 356 356 357 356 359 359 360 358 358 357 356 355 355 353 352 352 353 354 355 353 352 352
309 308 306 302 308 300 302 301 301 308 307 310 316 316 319 316 318 316 312 317 323 324 324 324 326 326 327 328 330 331 330 329 329 330 332 334 332 334 334 334 333 336 337 342 340 349 354 359 358 359 358 359 358 360 360 362 362 361 359 358 357 359 358 357 356 355 356 356 358 360 360 357 357 356 355 354 354 354 352 352 352 355 354 351 353 350
315 307 309 304 304 306 301 299 299 299 297 309 316 319 323 321 321 321 319 315 322 324 325 324 324 325 326 327 329 330 332 327 322 324 330 331 333 333 337 337 336 336 339 339 341 346 343 349 354 355 360 356 357 360 362 362 361 360 358 357 357 357 356 356 355 356 357 356 358 358 359 359 357 355 354 354 353 353 353 355 356 355 354 352 351 349
313 313 312 306 304 304 302 299 299 298 305 312 314 317 320 322 321 321 314 309 320 323 324 324 322 323 325 326 326 329 325 319 324 325 331 331 331 333 335 337 338 337 337 334 336 341 344 344 349 356 358 358 355 359 361 362 361 358 357 355 356 355 354 355 356 356 356 357 359 359 359 359 357 355 355 354 355 354 353 354 354 355 355 354 353 352
311 310 309 306 304 304 302 299 298 306 306 311 315 318 321 321 321 316 302 304 319 322 323 324 322 323 325 327 327 329 323 319 320 326 329 331 331 332 334 334 337 339 340 339 345 343 343 350 354 351 351 351 355 357 361 361 360 359 357 356 356 354 353 354 357 359 359 359 358 360 360 358 358 357 356 355 355 355 355 356 356 354 354 353 353 349
310 310 310 305 305 305 304 303 304 308 312 314 314 318 321 320 316 306 300 309 321 322 323 324 323 325 326 325 325 323 326 328 329 331 331 331 333 332 333 335 336 339 340 342 346 352 347 350 351 343 342 350 359 360 360 360 360 357 358 357 354 353 354 357 359 358 359 359 359 358 359 359 357 357 357 357 357 357 357 357 356 357 353 352 352 350
307 308 307 307 303 302 304 304 303 307 312 315 316 319 320 315 304 303 315 324 323 321 325 325 324 326 326 326 326 326 329 330 332 331 331 331 332 332 333 334 335 336 340 345 349 350 345 343 346 343 338 342 354 361 362 359 359 358 359 357 355 355 359 359 359 360 359 359 358 357 357 358 358 358 358 359 358 356 354 356 356 355 353 354 352 348
306 303 302 304 308 307 307 304 300 293 311 317 315 317 319 312 311 317 320 322 322 322 321 323 324 324 325 325 327 326 328 329 329 330 330 331 331 332 333 334 334 334 335 340 342 345 346 345 345 343 340 344 348 359 362 360 357 358 358 357 357 361 361 360 360 359 359 359 358 358 357 358 356 357 358 358 358 356 354 355 355 353 352 350 349 348
313 303 303 306 310 302 302 301 298 309 315 317 314 309 314 316 319 320 319 317 320 320 319 319 321 322 322 323 324 324 326 327 329 328 329 330 332 332 333 335 336 337 336 335 338 340 344 346 348 350 352 352 354 359 364 360 358 358 357 357 362 362 361 360 360 360 359 358 357 357 358 357 357 357 357 358 358 358 355 354 353 353 352 352 350 350
315 310 312 306 312 307 305 308 313 317 317 318 317 316 318 319 320 320 318 317 317 318 320 318 318 319 321 322 323 324 323 325 325 327 327 328 330 331 334 333 335 336 336 335 336 341 342 343 348 353 355 358 358 359 362 361 358 358 357 359 362 362 360 359 358 358 357 357 357 357 357 358 357 357 356 357 357 355 355 354 353 352 352 350 349 347
315 315 316 311 307 312 312 313 315 315 316 314 316 317 316 316 319 320 318 316 318 319 319 317 317 317 318 319 318 321 323 324 324 323 325 327 327 329 333 333 334 337 336 337 338 339 339 341 347 349 351 357 357 358 360 360 359 356 358 356 357 361 360 358 357 356 356 356 357 356 357 355 355 356 357 356 357 357 356 354 354 352 351 350 349 348
311 312 310 306 311 304 299 313 312 312 313 314 315 316 317 317 317 318 318 318 318 319 318 318 318 318 318 319 318 318 319 321 322 324 325 325 325 326 328 330 332 334 336 337 337 341 340 341 341 347 348 349 356 357 359 358 357 346 342 341 342 342 346 350 355 356 357 356 354 355 356 354 355 355 356 355 357 357 356 356 356 353 351 351 349 348
307 312 308 308 308 305 305 309 312 314 315 315 314 314 314 316 317 318 318 318 319 319 318 318 318 317 318 317 318 318 318 319 320 324 325 326 326 327 328 331 333 332 335 339 340 339 340 343 341 342 345 349 353 356 358 355 338 338 342 344 343 343 342 341 343 347 352 352 351 351 352 353 351 353 354 355 356 354 354 355 352 353 351 350 350 348
311 312 303 307 305 306 309 311 311 314 313 313 316 316 316 316 316 317 318 318 317 318 318 319 318 318 317 318 321 319 317 318 319 322 322 325 326 327 329 331 334 334 336 338 339 342 341 342 342 343 344 346 352 354 354 353 337 339 339 343 345 342 341 342 343 349 350 350 349 349 353 352 351 352 351 354 355 358 354 352 351 350 353 354 348 352
309 305 309 307 303 303 303 306 310 304 305 310 313 315 315 317 316 315 316 315 316 316 318 317 318 319 319 320 320 320 319 320 320 321 319 320 321 324 328 330 332 333 334 336 337 339 341 342 344 342 342 344 349 352 354 352 338 340 341 345 348 346 344 344 347 349 349 350 349 349 348 351 349 349 348 351 353 351 343 321 316 324 346 347 327 316
308 309 307 304 304 303 309 310 312 312 311 312 313 315 316 316 317 316 316 316 317 318 319 318 317 317 317 319 320 319 319 320 320 320 319 319 321 325 327 329 328 329 332 334 335 336 337 340 342 343 344 345 348 351 354 356 346 341 343 348 345 343 346 351 344 342 344 347 346 346 347 346 346 349 351 352 352 351 351 345 330 300 305 320 320 309
Wind_Speed
7 10 8 9 9 10 12 11 9 14 3 5 8 8 10 10 10 14 3 8 4 3 6 8 8 9 8 6 4 14 10 6 5 3 11 10 6 6 5 5 8 10 11 10 13 15 14 12 11 10 10 11 12 12 12 12 10 10 8 7 8 7 7 6 6 6 5 5 4 4 6 5 5 4 6 7 6 6 6 8 9 9 7 7 6 6
8 10 11 12 13 11 11 13 4 11 9 8 9 10 8 8 9 1 6 9 4 3 6 7 8 8 7 8 9 10 11 10 5 2 7 4 14 6 7 5 12 9 13 16 7 6 11 10 12 12 11 12 14 11 13 12 11 10 10 9 9 7 6 5 6 5 5 5 4 5 5 5 5 5 5 6 6 6 6 7 6 8 8 8 6 6
9 10 11 14 10 12 13 14 8 6 9 9 9 9 9 9 9 13 3 4 6 3 4 3 7 7 10 7 8 9 4 6 5 2 4 6 5 6 3 6 8 10 12 14 10 8 12 11 14 13 12 12 13 13 13 11 11 11 9 8 7 8 6 5 5 2 4 4 5 3 4 4 5 5 5 5 7 6 6 7 7 7 7 7 7 8
9 9 14 10 10 13 16 10 6 11 10 8 8 9 9 9 10 2 5 6 5 4 3 4 7 8 8 7 4 10 10 9 5 3 1 2 2 4 7 9 9 11 11 15 14 14 11 13 12 12 13 13 12 12 12 13 12 11 8 9 8 8 8 7 6 5 5 4 2 4 3 4 3 4 5 4 8 6 7 8 7 7 7 8 8 9
9 12 4 7 12 13 14 10 8 6 9 9 10 9 10 12 11 11 9 10 11 8 2 1 5 10 3 9 4 5 5 4 3 5 5 5 4 2 3 6 6 8 10 12 18 13 10 12 15 14 12 13 13 13 13 13 13 9 12 11 10 8 9 8 8 7 4 2 4 3 3 2 2 3 3 5 6 7 6 7 9 9 8 8 8 8
14 17 16 8 11 11 7 6 8 9 10 9 10 11 12 12 15 10 9 10 5 4 8 5 6 6 8 8 3 4 3 7 6 4 3 1 1 1 1 8 3 7 6 14 18 17 13 13 15 15 15 15 14 14 13 13 14 13 12 12 11 8 8 8 9 8 5 4 4 4 4 5 4 4 5 6 7 8 8 8 10 10 10 10 9 7
9 11 13 12 9 10 12 9 8 9 9 10 7 7 13 18 11 9 12 9 5 7 8 7 4 6 3 9 9 7 6 11 3 2 3 3 3 4 4 3 7 9 8 9 14 16 15 14 14 15 15 17 15 13 12 12 12 14 12 12 12 10 8 9 9 9 7 6 6 7 7 6 5 5 5 5 6 7 8 8 8 9 10 10 10 10
8 12 5 7 5 9 10 10 11 9 10 11 6 11 17 11 6 8 10 10 9 9 9 10 7 4 4 5 4 3 8 4 6 4 6 5 7 5 4 6 3 7 10 7 10 12 16 17 15 15 16 14 14 14 12 11 11 13 13 13 13 10 10 10 10 9 8 7 7 7 7 6 6 8 6 6 6 7 6 6 9 8 9 9 9 9
6 9 10 8 9 7 9 10 10 12 10 10 7 8 9 8 9 11 9 9 10 8 8 6 2 3 5 3 5 7 3 7 4 7 6 5 3 4 7 8 5 7 5 4 2 8 8 7 8 13 12 14 14 13 12 12 11 12 12 13 13 11 10 9 11 10 9 8 8 7 7 5 5 5 6 5 4 5 7 7 7 7 9 8 7 7
8 6 9 14 10 8 9 11 12 11 7 8 4 8 6 8 11 9 9 9 9 8 7 10 8 6 1 5 6 5 6 3 5 7 5 1 4 1 1 3 5 6 7 6 6 11 9 6 7 14 10 11 14 12 10 11 12 12 11 13 13 12 10 9 12 11 11 9 8 7 6 6 4 3 4 6 5 4 5 7 6 6 6 9 8 8
15 5 8 8 6 9 10 12 12 10 12 13 13 8 8 9 9 9 7 9 8 7 7 9 12 12 4 6 4 2 3 5 4 4 8 4 7 6 1 3 5 6 8 4 4 7 8 5 1 12 13 9 12 11 10 9 11 11 11 12 13 13 10 9 10 11 11 10 8 7 7 6 5 4 3 5 7 5 5 5 7 8 6 7 8 8
12 11 8 6 9 10 9 13 0 3 10 10 6 8 8 10 7 5 7 6 6 7 6 6 12 14 5 2 2 5 8 2 4 3 5 8 5 5 3 1 4 3 9 10 7 8 10 9 7 9 15 11 8 10 9 8 9 10 9 11 13 13 11 10 10 11 11 9 9 7 7 6 5 3 4 5 6 6 6 6 6 5 6 6 7 7
13 11 10 11 9 12 8 9 7 5 6 9 10 9 7 5 2 5 2 7 3 9 10 7 9 5 2 4 6 8 9 1 3 3 1 7 6 5 6 7 2 5 7 12 11 8 7 9 11 8 11 13 12 6 6 7 8 9 10 12 12 11 11 11 10 11 10 8 7 6 5 5 3 3 2 3 4 5 6 5 5 5 5 6 6 8
11 13 14 12 9 11 11 9 7 9 9 10 10 5 5 6 6 7 7 6 6 8 12 3 7 7 6 2 5 9 6 5 5 4 4 9 6 4 3 5 9 7 5 6 10 10 8 7 9 10 4 4 8 13 15 7 1 6 8 11 12 11 11 9 10 10 10 9 6 5 4 4 4 3 2 2 1 5 4 4 4 7 7 6 8 9
8 8 12 10 9 12 13 11 11 10 10 11 9 8 5 7 6 8 6 7 8 3 5 3 7 5 4 4 3 9 5 4 6 3 8 9 6 4 4 5 5 10 7 6 3 8 9 13 13 12 11 10 6 2 4 12 2 3 5 9 12 12 12 11 10 10 10 5 2 3 3 3 4 5 5 4 1 3 2 0 3 4 7 8 8 8
9 7 6 13 9 16 12 13 11 13 13 11 10 8 10 7 2 9 8 10 8 5 7 4 4 4 2 5 7 1 2 2 5 10 8 8 6 5 3 4 4 7 2 2 6 4 9 12 11 8 8 9 7 8 7 9 6 3 7 9 10 11 11 10 9 6 6 5 3 4 5 4 4 4 5 3 3 2 1 2 5 8 7 6 6 5
8 5 5 13 1 12 11 9 11 7 10 2 7 8 7 7 11 9 10 10 12 10 4 8 8 11 1 4 2 8 6 7 5 8 7 9 9 5 4 4 4 10 10 5 4 6 6 7 11 9 11 14 10 6 6 6 8 7 11 10 9 9 8 7 4 6 8 10 10 10 10 7 7 7 7 6 7 7 5 5 4 2 7 8 5 7
8 9 14 7 13 12 8 8 11 14 9 7 8 3 8 8 13 9 9 7 8 8 2 3 1 1 5 4 2 5 5 4 4 3 9 10 8 8 5 4 3 3 5 8 6 2 7 7 11 10 11 18 17 13 9 7 8 8 7 8 11 7 9 4 5 4 6 7 8 7 6 6 6 7 7 6 6 7 6 4 4 4 3 7 8 7
7 8 6 4 11 8 9 8 10 12 8 8 9 11 9 5 4 1 3 6 6 5 3 6 5 4 7 4 5 6 0 10 13 5 7 8 5 7 6 6 1 5 7 6 1 2 3 4 7 9 12 16 21 16 13 12 13 12 11 9 6 7 8 11 9 9 8 8 7 6 6 7 7 7 7 7 5 4 5 5 5 6 6 6 9 12
6 8 7 7 9 8 7 7 8 8 10 11 9 11 7 7 8 8 5 8 5 5 3 5 10 2 5 9 11 3 3 5 6 7 10 9 11 4 6 6 7 10 9 12 9 2 3 4 8 6 7 11 16 22 18 14 10 11 10 7 9 9 11 11 10 8 7 8 7 6 8 7 6 7 9 8 7 6 6 6 7 7 8 8 9 11
8 2 10 7 10 4 6 7 8 7 7 11 11 8 7 7 5 7 8 7 4 4 3 3 1 5 4 5 12 6 7 3 4 4 2 3 4 1 7 8 7 12 5 10 13 5 5 4 6 8 7 8 10 14 21 16 12 11 10 10 10 8 6 7 8 8 6 5 6 5 6 6 7 9 8 7 8 7 7 7 7 7 7 7 10 11
7 6 9 6 7 8 8 6 5 7 8 10 7 7 4 6 7 7 9 6 9 6 0 6 5 7 6 7 5 4 2 3 5 5 4 4 2 1 6 12 8 8 5 12 18 9 6 3 7 7 7 7 7 6 11 16 17 16 11 9 11 4 3 4 5 6 8 7 6 7 8 8 8 8 7 8 9 10 9 9 8 8 8 9 10 7
8 8 8 8 8 10 9 9 8 9 11 12 8 9 8 8 8 7 5 7 7 7 8 2 4 3 2 2 3 5 8 4 6 4 2 2 5 6 5 9 9 11 7 17 18 8 7 5 5 5 8 7 7 7 7 8 9 11 10 10 13 7 4 4 5 6 5 6 7 8 8 8 7 8 8 10 9 10 10 9 9 9 7 7 9 10
10 6 8 9 10 13 15 14 15 16 9 6 7 9 9 10 10 11 9 7 7 8 8 5 2 1 4 5 5 1 2 8 4 4 2 7 4 4 5 8 9 15 16 16 7 10 5 3 7 5 7 7 7 7 8 5 5 8 9 9 12 19 12 8 6 5 5 5 8 8 9 9 9 9 9 8 7 10 10 9 5 2 4 8 8 8
6 2 4 9 8 7 10 10 11 11 14 9 10 10 11 11 11 12 12 6 10 7 7 3 3 3 4 6 8 3 4 7 4 3 1 4 4 2 4 3 5 9 5 9 7 7 6 5 8 6 6 7 6 6 7 6 6 6 5 5 9 9 19 16 12 10 11 11 10 10 10 9 8 7 7 6 7 8 8 8 7 7 8 8 7 5
8 7 5 8 7 8 8 8 6 7 9 10 13 12 7 11 14 10 9 3 3 3 6 6 4 4 3 4 5 12 4 9 5 7 11 9 3 1 4 6 7 8 9 13 5 9 8 6 7 7 8 6 6 7 7 6 6 7 6 7 6 6 5 13 12 11 9 8 9 6 5 5 6 6 7 8 8 8 8 7 6 8 8 8 8 9
7 7 8 7 9 9 8 9 12 10 9 11 14 17 18 17 17 14 9 7 5 5 6 7 6 4 8 8 6 7 6 2 5 9 6 8 10 8 6 6 5 8 8 11 17 4 5 7 9 8 8 6 7 7 7 7 7 7 6 6 5 4 3 6 9 9 9 8 6 5 6 6 6 7 6 6 5 5 6 7 8 8 8 8 8 8
6 8 10 12 15 14 16 17 15 14 16 13 13 18 21 18 15 16 13 4 3 5 7 5 10 5 5 6 9 6 7 4 4 5 6 2 1 3 7 3 5 8 8 5 14 19 5 7 8 8 7 7 6 7 7 7 7 7 7 6 5 4 4 4 5 6 5 6 7 6 7 7 6 4 4 4 5 5 6 7 7 7 5 7 8 9
7 8 9 13 15 17 16 16 11 14 15 12 14 18 19 15 17 18 16 6 11 8 9 8 9 9 5 6 5 9 5 2 7 3 3 6 4 8 6 5 8 10 8 9 8 3 14 13 6 7 8 7 7 8 8 7 7 6 6 6 5 5 5 4 4 5 5 5 5 5 6 6 5 4 5 5 5 6 7 6 7 7 7 7 7 7
5 6 10 11 15 17 17 17 16 14 14 15 16 18 19 17 16 17 16 12 13 12 13 11 8 7 9 8 6 6 2 3 3 2 2 4 5 6 5 4 5 8 9 10 9 8 5 13 9 6 7 8 8 8 8 7 6 6 7 6 6 6 5 4 4 4 5 6 6 5 5 4 4 4 5 6 7 7 7 6 7 7 7 7 8 9
4 7 5 9 10 13 15 17 18 18 17 18 18 20 20 18 17 16 14 13 16 11 12 6 2 5 6 5 6 4 3 2 2 5 6 4 1 4 2 2 4 6 8 6 9 8 6 5 11 5 7 7 8 9 7 7 6 6 6 5 6 5 5 5 5 5 5 5 5 5 5 5 5 5 6 5 5 7 7 7 7 6 6 7 9 10
6 9 9 10 11 12 13 15 18 17 18 20 20 19 19 19 19 9 8 9 5 6 8 3 6 5 7 9 5 4 2 4 7 6 3 2 5 2 7 6 8 5 7 7 3 3 6 6 10 7 7 7 7 7 7 6 6 6 6 6 6 6 5 6 5 6 6 5 5 5 5 5 5 5 6 5 6 5 6 6 6 6 6 7 10 10
7 9 9 9 11 12 13 15 17 17 16 17 17 16 9 11 13 13 7 14 10 9 3 5 7 3 1 7 7 7 7 6 7 7 7 6 5 6 5 3 4 6 7 4 6 6 5 6 9 6 6 6 6 6 6 6 5 5 5 6 6 6 6 6 6 6 6 5 5 5 5 5 6 5 5 4 4 4 5 5 5 6 5 7 6 7
9 10 10 7 11 11 15 15 14 13 13 11 9 3 7 10 1 13 9 8 12 9 7 5 4 4 8 4 4 6 5 5 5 7 7 5 1 5 8 5 4 5 5 1 5 4 3 2 3 5 6 7 7 7 6 6 6 5 5 5 6 6 5 6 6 6 5 4 5 5 5 5 6 5 5 4 4 5 4 4 4 4 3 4 5 5
11 10 9 7 9 10 11 12 12 13 11 9 14 7 8 8 3 17 15 12 9 8 6 8 10 11 9 7 6 7 3 4 7 8 8 7 5 1 1 3 2 3 2 2 2 1 3 6 4 4 6 6 6 6 5 5 5 5 5 5 6 5 5 5 6 5 5 5 5 5 5 5 5 5 4 4 4 3 4 3 3 3 1 1 3 5
9 9 7 8 8 9 10 8 12 10 9 13 8 13 10 6 9 2 13 13 12 11 9 9 10 12 11 7 2 2 4 2 7 8 7 10 7 4 4 2 1 7 4 2 3 5 5 5 3 4 5 5 5 5 5 5 5 5 5 5 5 5 5 5 5 5 5 4 5 5 5 4 4 4 4 4 4 3 3 3 3 2 2 2 2 2
11 8 7 9 6 10 8 10 12 10 13 9 11 9 9 9 8 6 2 10 11 12 11 7 6 5 8 7 10 6 5 7 4 6 10 10 12 9 9 6 2 5 5 4 7 6 5 2 4 4 4 4 4 5 5 4 5 5 5 5 5 5 5 5 5 5 5 5 5 5 4 4 4 4 4 3 3 4 3 2 2 2 2 2 1 1
8 9 5 7 7 7 9 10 10 9 10 6 9 9 1 4 9 7 5 4 9 9 10 7 7 10 10 11 11 11 6 7 7 4 10 12 12 10 9 9 9 5 7 6 0 6 15 11 0 3 4 5 6 5 4 6 5 5 5 5 5 5 5 5 5 5 5 5 5 5 4 4 4 4 4 3 4 3 3 1 2 2 2 1 2 1
8 7 6 8 8 8 9 10 8 9 6 4 10 11 9 4 4 8 2 4 3 6 8 8 7 10 11 12 11 10 2 5 3 3 9 12 11 12 11 11 9 10 11 4 7 6 7 10 7 6 5 6 6 5 5 6 6 6 5 6 5 5 5 5 5 5 5 4 4 4 4 4 4 4 3 3 3 3 2 1 2 1 1 1 0 1
7 6 6 9 10 9 9 9 9 3 6 11 11 11 11 11 7 4 8 2 6 8 7 6 9 10 9 10 9 7 8 5 5 6 9 12 12 12 11 13 12 10 8 10 10 2 11 9 6 5 6 7 6 6 6 6 6 6 6 6 5 5 6 5 4 4 4 4 3 3 3 3 4 3 3 4 3 2 2 2 1 2 1 1 2 2
5 5 5 10 9 9 11 9 8 5 7 12 13 12 12 10 7 7 5 2 6 6 9 12 7 6 8 9 7 6 7 8 9 10 9 9 7 9 8 9 11 10 7 9 8 13 2 7 5 5 6 1 2 5 6 6 6 6 6 6 6 7 6 5 4 4 4 4 4 4 4 3 4 4 4 4 2 2 3 2 2 2 3 2 2 2
7 6 7 9 10 10 8 8 2 6 6 11 12 10 12 12 7 3 2 7 4 4 4 4 6 8 6 7 6 5 7 8 9 9 10 9 10 10 11 12 11 12 12 8 8 8 9 3 4 4 4 3 4 4 5 6 6 6 7 7 8 8 5 5 5 4 4 4 4 4 4 4 3 4 5 4 3 3 3 2 3 2 1 1 1 2
5 6 7 7 7 7 7 9 6 3 6 12 14 8 12 5 4 1 5 5 6 5 7 5 4 6 7 7 8 8 9 9 7 9 9 10 7 8 8 8 11 12 11 11 9 10 7 8 7 4 3 3 3 3 4 6 7 7 7 8 9 6 5 5 5 5 5 5 5 5 4 4 4 4 4 4 5 5 4 3 3 3 3 2 2 1
4 8 6 3 7 6 7 5 3 3 6 6 10 6 6 5 3 4 4 5 4 7 7 6 5 7 8 7 8 9 9 9 8 9 9 11 9 6 6 6 7 8 10 10 10 9 10 6 5 6 8 6 3 3 4 6 7 7 8 10 7 6 5 6 6 5 5 5 5 4 4 4 5 5 4 4 5 4 4 4 4 4 4 3 3 2
6 5 4 5 6 6 7 6 3 5 7 7 4 1 6 7 3 1 3 3 6 6 8 6 8 9 9 9 9 9 9 9 9 10 10 9 10 9 8 7 7 8 7 7 10 11 9 8 5 5 7 7 7 4 4 4 7 9 10 8 6 6 7 7 6 6 6 6 5 5 5 4 4 4 4 4 4 5 5 4 4 4 4 4 4 4
3 6 2 3 5 7 9 8 5 7 3 10 14 9 8 3 3 4 1 3 3 5 6 8 10 11 11 11 10 9 8 9 10 11 11 11 11 11 8 8 5 5 8 9 8 9 9 8 7 6 7 6 5 7 6 5 5 8 7 5 7 4 5 6 6 7 7 6 6 5 5 4 4 4 4 4 4 5 4 5 5 4 4 4 5 5
9 7 4 4 4 5 3 3 6 10 10 4 6 9 9 8 11 14 12 9 6 7 8 10 11 12 12 11 12 11 10 10 11 11 10 9 11 12 12 10 9 6 6 7 7 7 8 8 8 7 6 7 6 7 7 8 2 12 14 5 4 11 15 11 7 6 6 6 6 6 5 5 4 4 4 4 4 4 4 4 4 4 5 5 4 4
5 8 9 7 6 5 6 8 12 8 11 7 3 7 6 8 12 11 11 10 11 10 11 11 12 13 13 13 13 13 13 12 11 10 9 9 9 9 9 9 8 10 6 6 5 6 7 7 9 8 8 7 6 7 8 4 12 3 3 2 3 6 7 5 10 11 8 8 7 6 6 5 7 6 4 4 4 4 4 5 4 5 5 5 5 5
11 10 7 7 8 6 8 6 12 9 9 5 9 9 9 11 12 12 11 12 12 13 13 13 11 12 13 13 12 12 14 13 12 10 11 9 10 9 8 7 7 8 6 5 6 7 6 6 8 9 8 8 6 6 7 4 10 4 11 6 6 7 7 8 10 10 9 8 8 7 6 6 6 5 5 5 4 2 3 2 3 3 1 5 4 1
8 7 7 6 6 7 5 9 9 7 8 10 11 12 13 12 13 14 13 12 12 12 12 13 12 11 12 12 12 12 13 12 13 13 14 13 12 11 10 8 7 9 8 6 5 6 7 7 8 10 9 8 7 7 6 6 12 8 10 10 4 2 4 5 4 5 7 8 8 8 7 6 6 6 6 5 5 5 4 6 7 4 2 3 6 9
7 7 5 8 9 9 12 11 9 7 7 9 12 14 13 13 13 13 14 14 13 14 14 15 16 15 12 11 10 12 14 14 15 15 15 13 12 10 10 10 9 9 8 7 6 5 7 9 9 8 8 7 7 7 6 3 11 11 9 5 5 8 12 8 7 8 11 10 10 9 8 8 8 6 5 5 5 5 5 4 4 9 10 7 5 6
Wind_Direction
224 228 229 231 243 256 269 251 243 262 340 350 300 271 264 268 252 244 207 31 62 293 293 333 317 295 315 322 128 172 186 190 190 244 167 172 183 180 140 191 122 138 149 192 223 195 175 168 172 158 169 169 173 174 176 180 178 176 178 176 168 165 159 162 165 169 176 171 185 224 202 210 175 202 184 176 179 179 176 166 165 164 155 170 175 190
216 239 243 244 249 249 252 258 303 339 344 294 281 287 279 273 259 323 136 149 149 277 305 271 297 308 293 304 259 197 166 187 182 206 284 240 170 185 172 215 146 154 140 181 207 196 158 175 176 169 175 178 173 180 173 183 179 175 178 180 175 146 152 157 165 176 185 167 189 197 215 199 185 191 197 169 172 177 164 159 153 165 164 168 177 184
199 233 243 252 259 266 264 268 328 286 298 298 287 292 295 276 278 260 160 122 133 218 260 325 310 300 284 287 338 333 266 120 117 223 270 304 73 151 204 231 158 151 146 153 184 214 166 180 178 173 174 176 175 179 184 180 176 177 175 176 178 149 162 159 175 191 195 185 203 204 204 217 188 180 192 185 152 169 157 159 172 164 159 171 178 183
224 222 228 232 256 254 258 271 306 291 283 277 267 249 251 278 303 36 102 152 185 204 313 342 317 295 273 225 9 36 49 55 73 113 13 31 80 156 212 207 184 159 155 151 182 196 178 182 176 179 177 175 175 177 183 185 185 181 172 173 178 165 158 174 173 194 224 198 178 214 209 204 213 170 177 163 140 155 158 165 188 171 160 178 182 184
252 254 75 234 209 225 249 250 258 258 246 238 240 264 279 287 273 288 160 219 169 220 133 271 266 281 241 84 109 163 93 97 98 61 17 20 354 36 57 20 190 206 171 155 172 187 175 183 182 186 182 175 180 181 185 185 184 184 176 177 172 174 166 172 178 189 199 141 210 201 186 175 145 138 170 150 163 154 176 171 186 180 168 180 186 186
268 279 292 270 296 311 333 306 268 259 275 273 269 261 270 264 269 276 334 342 271 179 194 183 305 301 68 100 140 138 202 119 77 94 85 258 196 17 236 130 133 326 214 181 175 179 189 185 184 186 183 181 183 188 189 185 181 186 178 176 168 174 167 169 176 181 166 184 177 169 191 161 174 175 162 185 180 167 174 193 186 174 177 178 191 185
248 234 238 246 230 255 260 270 272 264 267 268 262 261 235 231 262 318 308 294 279 276 172 258 255 297 137 88 24 351 79 96 138 213 275 214 205 187 258 201 154 171 257 221 186 177 181 191 185 179 181 185 186 185 191 181 179 182 172 174 170 173 170 172 177 176 162 183 171 186 190 183 186 185 183 187 181 177 182 185 179 171 176 183 191 181
237 268 320 3 311 262 251 235 233 252 258 264 277 289 306 338 3 296 273 253 274 277 193 199 246 277 301 8 50 32 103 170 162 236 233 194 213 211 209 255 221 191 213 220 192 187 182 178 188 182 188 190 189 186 185 175 181 173 169 176 169 168 172 177 172 174 174 175 180 186 198 195 183 195 180 184 173 181 169 189 179 182 176 183 184 182
197 226 230 233 227 250 246 250 263 208 246 266 303 12 334 309 281 272 274 287 288 318 303 257 226 289 303 109 203 235 238 183 215 209 186 197 275 189 213 215 188 173 173 213 181 74 28 10 256 203 188 198 197 190 184 171 173 174 171 169 162 162 165 173 172 173 179 184 175 189 194 205 203 208 162 171 187 175 167 189 178 187 176 177 188 180
170 254 234 226 235 238 238 261 260 301 273 211 270 347 298 287 282 295 282 291 295 302 303 313 312 292 44 151 177 138 255 330 214 198 202 143 162 236 232 243 215 142 130 161 144 125 167 184 299 280 204 205 196 193 182 164 165 169 166 163 158 164 168 169 170 174 178 184 180 185 192 202 202 221 153 161 171 163 193 180 175 190 172 177 186 189
287 313 337 317 246 243 247 223 247 226 232 285 322 294 278 258 251 244 245 249 261 267 296 279 263 260 271 188 29 229 78 53 49 25 349 109 117 116 19 178 206 192 161 146 131 114 141 125 168 290 270 221 191 193 179 156 159 163 168 163 163 166 167 165 169 173 182 182 189 187 187 198 196 207 168 155 163 167 196 175 192 188 185 178 183 191
232 240 229 216 269 278 268 284 161 337 309 321 298 296 285 264 236 248 286 329 302 279 277 306 288 289 283 284 49 85 124 78 82 142 109 100 139 116 125 6 11 98 145 178 161 158 155 138 135 258 279 282 224 195 161 152 158 168 171 164 167 169 161 165 170 179 184 188 190 183 186 185 195 189 194 181 169 174 189 189 202 184 189 184 188 182
232 226 229 224 197 253 261 262 247 219 206 226 235 233 263 303 19 284 308 252 247 275 263 285 353 0 3 328 332 76 65 2 64 330 261 94 78 57 28 25 337 183 203 156 148 157 160 138 136 190 271 315 325 311 186 152 157 164 168 168 169 171 168 162 170 180 179 188 185 178 180 185 131 79 80 239 166 185 184 201 192 198 196 191 203 191
213 211 203 221 201 188 243 229 226 226 203 212 217 248 256 260 284 287 265 255 260 273 313 358 29 260 352 21 360 98 91 3 54 308 95 91 70 49 54 40 345 320 44 115 139 151 158 148 152 130 144 315 340 345 352 337 117 165 170 172 174 175 174 163 165 175 179 184 175 183 181 160 132 144 186 252 180 196 178 190 212 206 204 199 209 203
309 189 196 205 209 166 205 230 247 262 201 208 223 248 274 291 271 275 309 302 282 307 244 33 290 21 337 44 357 100 97 216 134 111 82 92 89 43 37 7 352 305 101 161 147 160 162 143 145 141 143 131 126 358 344 309 277 5 187 178 179 173 178 173 168 176 175 150 140 209 167 156 155 175 207 184 168 39 34 73 289 251 213 212 211 207
276 300 289 175 259 164 200 203 250 266 283 293 300 298 258 228 164 258 267 277 296 319 284 196 307 4 77 270 261 154 213 231 47 99 117 97 98 89 34 353 331 328 264 272 147 107 102 123 122 138 139 124 112 145 206 248 284 174 254 201 190 178 177 174 165 144 95 47 335 311 284 226 180 180 203 146 127 134 169 178 180 245 239 227 216 225
315 255 130 152 136 154 199 197 205 242 266 200 219 239 282 295 255 248 247 254 266 258 258 355 41 5 188 259 152 49 350 23 22 9 110 103 105 107 90 28 349 3 351 332 116 95 119 120 128 147 142 130 131 141 204 269 278 235 217 210 198 179 140 59 24 92 144 171 180 189 192 191 193 190 194 190 183 182 165 192 207 253 293 253 232 229
295 314 310 229 178 175 259 262 236 190 226 284 269 294 8 318 313 320 318 340 308 296 303 310 154 112 342 285 125 271 305 177 4 343 69 129 126 110 103 95 349 84 322 323 72 89 133 152 150 158 148 141 137 161 164 224 272 285 280 228 198 152 84 145 157 176 176 188 201 200 201 178 175 184 196 208 210 171 177 187 218 182 158 310 309 253
344 299 303 321 294 283 176 235 250 263 250 281 284 331 315 321 273 271 298 276 296 292 357 312 327 223 146 220 356 318 336 356 1 9 28 57 74 120 130 122 140 4 331 351 146 174 117 180 144 147 150 145 146 155 149 186 225 240 232 205 174 131 166 177 176 178 187 192 193 194 202 197 184 190 196 193 177 155 186 190 193 211 192 181 223 260
312 301 289 307 284 265 201 157 250 216 206 242 272 270 261 277 267 291 276 318 313 304 290 3 289 40 23 318 93 279 81 354 22 31 30 12 14 85 103 92 74 58 14 329 303 274 157 240 159 143 151 144 139 143 149 176 212 236 236 188 148 145 171 157 150 147 169 196 205 201 191 193 196 197 203 186 180 186 196 208 205 200 209 210 236 239
292 223 286 292 282 267 206 175 250 236 249 201 209 245 262 240 247 269 278 268 286 298 215 205 302 328 45 41 81 18 16 51 317 11 48 53 340 57 126 119 126 99 134 264 275 240 201 215 133 142 155 138 135 143 149 165 185 215 216 185 141 137 144 146 141 142 166 203 216 233 222 193 200 215 208 188 185 196 204 201 211 224 214 207 229 241
248 247 259 260 246 236 290 302 271 286 268 282 295 282 281 256 255 243 247 224 247 257 318 106 172 222 287 356 346 43 247 31 37 42 354 351 314 347 112 122 123 110 70 277 261 214 193 198 151 165 146 139 121 124 152 159 165 179 179 184 133 135 212 165 155 169 180 188 199 208 225 223 207 213 207 205 202 203 205 197 199 218 223 229 218 227
326 339 314 293 289 287 281 280 266 240 268 275 269 255 260 292 292 260 260 272 274 275 284 67 88 88 299 178 245 40 339 358 63 126 40 305 284 262 141 133 137 120 146 248 255 185 170 183 162 158 145 145 141 155 162 153 160 159 177 177 129 129 253 249 195 196 189 184 177 199 219 226 211 208 214 215 213 218 220 219 203 215 211 224 235 215
332 281 297 285 299 292 289 289 291 295 294 265 256 276 288 274 283 294 302 322 309 48 55 37 68 137 220 278 288 264 194 35 25 358 196 228 243 29 69 129 136 144 179 227 266 154 161 170 137 134 147 154 157 176 165 165 174 161 176 178 150 152 176 230 226 205 207 213 210 206 208 215 217 213 211 212 220 222 218 223 211 162 170 216 240 228
303 278 312 305 286 270 260 258 268 359 352 330 319 303 290 294 278 276 295 306 282 44 342 57 323 27 229 243 279 214 147 115 222 222 223 315 57 315 71 42 74 81 359 284 255 164 164 169 155 164 164 163 166 175 164 162 187 166 172 196 165 172 151 190 192 189 194 190 204 202 203 204 210 205 211 211 227 231 231 219 197 192 209 206 217 243
285 293 270 272 298 303 312 305 323 323 304 320 283 288 286 279 284 288 267 288 320 79 320 273 229 208 208 108 26 340 331 64 355 352 344 4 299 113 108 63 47 33 19 310 215 155 180 182 161 161 169 170 174 175 172 169 178 179 180 190 177 180 173 156 163 174 178 193 208 210 211 204 200 215 216 219 219 231 237 239 221 175 199 190 214 215
280 289 282 280 287 290 283 294 303 288 281 270 287 300 303 309 306 299 294 277 259 141 217 172 188 186 245 182 133 210 65 289 337 337 337 40 9 75 100 111 136 122 110 319 301 243 160 135 161 166 176 176 181 178 178 177 182 183 184 193 181 169 189 146 160 170 186 181 182 194 215 222 217 199 210 217 226 226 229 232 227 221 191 191 202 216
263 268 268 260 247 246 252 253 259 259 263 277 308 300 291 282 285 285 282 287 105 222 252 181 171 195 239 237 124 179 162 110 32 336 334 35 150 200 120 172 105 99 92 83 319 316 285 177 173 168 182 179 185 179 177 186 185 189 186 189 177 169 174 151 163 175 179 170 180 198 202 220 223 206 204 220 224 219 225 230 236 232 202 192 206 216
270 288 293 289 289 293 300 296 298 291 274 256 232 242 264 285 282 284 287 267 187 249 285 162 182 188 226 299 98 43 55 76 121 232 327 306 55 88 125 140 148 131 145 170 182 252 312 293 186 181 181 184 189 182 188 185 187 191 186 189 181 175 181 177 174 171 166 171 199 205 211 212 208 199 214 221 217 216 218 231 240 240 218 202 211 219
346 274 288 293 292 284 279 283 285 277 284 285 279 276 275 278 278 280 286 298 25 22 5 174 169 93 79 54 88 124 50 40 113 147 197 301 130 144 182 215 187 149 167 169 158 181 206 288 267 203 185 188 187 185 185 187 185 190 188 189 177 185 172 166 175 186 180 189 196 203 223 230 225 217 220 219 227 225 227 231 245 244 240 214 214 215
305 291 289 288 287 285 284 280 276 275 277 277 278 273 268 270 279 278 290 338 360 341 54 126 62 96 58 38 60 42 346 15 64 60 338 354 267 239 262 224 260 177 162 166 168 149 189 203 282 219 203 188 191 183 184 176 186 190 192 191 182 178 169 176 182 194 194 206 205 199 205 213 216 216 221 221 246 245 233 236 239 239 235 230 225 230
293 292 300 293 289 280 277 273 271 272 275 277 276 275 275 273 272 314 326 13 11 10 15 123 89 55 28 356 336 353 60 28 34 44 359 5 328 293 204 228 237 161 157 154 111 119 186 210 229 220 205 198 191 185 178 182 182 187 187 187 181 177 178 182 193 197 207 204 212 204 211 217 224 223 222 228 245 237 257 250 247 255 261 259 259 251
291 289 282 286 277 278 286 289 291 286 276 267 263 272 310 10 345 307 3 40 24 14 37 77 117 154 329 344 337 355 4 41 50 53 48 30 351 328 324 274 95 111 112 156 172 188 222 163 225 210 204 198 192 188 186 184 184 184 181 174 174 178 185 192 192 208 208 212 211 211 212 218 224 228 241 223 239 274 247 242 249 255 253 267 277 274
270 270 275 277 272 278 284 289 291 285 269 269 289 309 286 281 40 90 69 59 48 39 58 51 42 55 100 81 351 331 6 47 58 56 46 97 159 299 289 347 51 74 63 164 182 201 175 264 213 198 198 198 194 189 187 181 182 183 172 174 174 184 193 191 204 205 212 211 215 214 214 219 222 238 239 227 218 232 245 245 245 243 247 277 280 273
268 276 276 275 272 275 285 283 275 267 270 288 286 306 351 318 26 88 87 76 61 63 57 53 21 14 10 46 28 343 343 84 64 46 41 56 44 61 358 8 331 57 345 169 109 121 283 242 191 183 191 192 191 176 176 173 177 177 166 177 177 190 188 201 204 206 211 208 218 218 220 220 224 236 239 242 242 240 249 271 281 302 343 248 266 268
257 255 262 259 262 277 273 265 271 269 307 299 26 28 22 18 46 117 97 65 67 55 38 31 11 351 349 357 67 271 291 218 100 53 11 38 44 59 60 343 186 164 202 267 164 218 210 220 184 173 191 187 177 173 175 178 177 173 178 169 184 182 196 199 208 213 213 215 219 219 217 225 229 230 237 241 243 251 261 267 289 236 183 216 219 277
250 257 262 277 284 284 292 279 276 311 286 7 30 18 24 32 25 6 305 78 44 35 41 25 19 346 324 334 352 348 290 252 230 65 16 32 42 10 8 22 57 185 201 195 204 205 227 160 137 172 180 189 192 176 184 166 173 174 175 183 190 192 194 198 207 214 212 209 215 226 230 232 228 233 239 243 250 262 266 265 253 199 194 238 257 215
213 236 243 267 261 253 269 277 276 271 271 39 348 53 18 38 64 42 317 100 40 22 16 27 356 358 352 354 355 342 254 234 231 16 9 22 29 17 26 0 333 341 172 204 289 46 34 334 43 193 173 208 202 189 178 163 176 179 177 194 190 201 196 204 215 212 209 212 204 202 220 227 233 236 241 243 256 258 267 216 233 186 184 233 238 184
273 255 256 261 278 280 274 275 277 278 53 351 11 338 6 293 102 111 352 288 58 7 348 6 3 349 359 349 357 348 335 203 183 341 359 9 25 27 22 14 2 347 341 41 103 112 176 218 218 195 191 199 205 188 179 163 182 182 191 199 203 200 210 208 212 210 211 210 204 199 197 198 218 234 238 248 249 253 268 230 218 111 156 176 137 119
247 256 238 233 240 253 266 269 278 3 50 16 359 355 356 3 305 271 264 287 347 331 323 331 33 4 356 348 350 5 18 22 354 357 357 5 28 6 31 10 0 359 8 1 23 52 215 182 158 181 193 199 202 187 184 165 184 196 198 210 205 209 219 220 215 208 202 207 210 195 201 197 211 216 226 238 233 228 228 202 194 156 130 163 179 179
288 275 241 257 257 245 235 253 258 122 32 5 1 348 8 330 322 259 290 311 277 310 9 349 9 347 356 340 3 351 7 351 338 330 343 335 13 2 11 37 5 6 21 11 24 3 63 136 170 164 211 238 233 178 191 170 189 201 205 213 209 218 223 218 216 207 196 210 198 201 206 194 210 202 210 222 230 194 200 189 230 176 168 179 136 137
270 293 284 285 272 269 273 273 235 79 32 352 8 1 3 299 267 17 108 220 239 314 92 84 336 341 344 329 336 350 344 353 341 354 334 352 8 7 356 11 10 5 7 7 24 33 5 347 160 209 194 171 253 203 189 187 198 201 207 213 218 218 211 212 209 194 202 209 205 203 203 203 203 200 208 190 150 200 204 203 204 190 137 100 241 161
319 295 292 289 308 303 290 285 283 259 29 355 356 13 25 18 64 345 326 354 2 21 24 6 2 16 340 343 341 340 338 342 357 343 344 322 358 348 351 8 4 3 1 359 9 12 12 356 335 330 269 216 226 237 220 204 206 206 207 218 221 209 201 203 200 197 206 209 211 202 200 202 199 204 221 197 179 200 210 201 199 179 153 173 164 221
351 277 283 287 41 325 319 331 326 355 291 3 4 8 33 71 109 26 331 351 4 5 20 338 329 351 331 334 332 325 322 322 328 346 338 336 336 337 346 9 17 347 358 351 356 7 10 348 334 322 318 316 272 254 244 212 220 212 213 219 209 199 194 198 192 199 206 211 210 204 201 198 197 202 195 207 198 207 218 204 197 181 179 169 145 128
53 354 32 308 356 321 321 322 322 343 338 330 268 58 104 112 43 2 353 8 7 354 1 326 337 328 317 325 315 309 305 312 318 325 319 330 326 328 353 5 14 349 337 351 346 352 354 348 332 300 299 307 300 252 251 239 242 230 226 221 201 194 192 192 194 198 204 206 206 203 207 194 202 197 192 190 203 203 213 209 207 187 176 185 172 163
167 125 53 281 297 349 314 294 337 301 9 3 360 26 346 322 268 163 72 53 321 338 326 329 322 314 315 310 310 306 302 313 317 311 312 313 316 311 327 335 359 346 337 348 355 359 334 339 325 310 307 298 310 308 283 253 244 258 255 349 333 259 204 203 204 202 201 202 196 204 201 198 201 200 205 192 188 216 204 207 204 193 185 189 199 188
55 9 334 309 320 313 288 27 329 344 347 342 355 329 313 315 357 3 356 332 355 358 338 318 314 311 308 310 300 304 307 310 307 308 310 309 301 301 305 314 318 338 334 344 338 332 327 326 315 317 314 306 273 255 259 255 308 23 22 31 78 348 332 318 273 224 218 207 202 198 193 196 199 209 205 208 203 200 211 218 215 189 185 202 208 201
99 36 308 297 308 279 297 342 354 347 333 350 349 298 306 7 358 351 344 342 337 332 315 316 319 313 317 309 311 309 305 299 293 294 298 301 304 301 298 301 310 309 313 319 316 328 307 321 311 323 323 306 288 270 277 302 55 5 237 230 153 166 176 219 278 273 246 230 218 206 199 191 203 209 195 200 207 208 204 214 217 216 201 210 196 192
325 344 289 300 267 272 272 24 355 330 278 259 19 3 1 349 345 327 327 323 318 311 317 313 310 304 301 300 299 297 295 296 299 297 294 290 293 295 292 297 309 304 298 306 313 303 296 305 315 306 306 303 312 301 275 101 105 256 269 244 221 204 195 206 222 237 246 245 234 219 194 194 192 201 208 193 200 155 52 53 39 353 290 51 12 334
275 274 10 317 282 259 44 351 6 353 331 332 330 350 342 330 328 319 314 312 313 306 294 291 291 296 299 300 303 306 307 311 310 309 305 303 297 292 289 290 293 294 293 289 288 287 294 295 292 297 303 306 304 304 298 106 146 211 234 241 203 265 249 225 242 277 264 238 231 225 196 188 204 197 205 199 188 160 109 69 83 68 36 86 52 53
304 41 346 305 318 315 341 337 2 334 326 313 327 323 326 322 316 319 318 311 312 313 320 318 312 300 295 295 299 301 300 300 301 301 297 294 297 299 301 299 288 279 279 285 281 293 296 292 282 277 286 294 303 302 307 290 153 180 239 232 128 217 230 203 170 208 230 238 233 224 212 196 205 197 188 204 185 191 154 167 88 49 53 87 96 68